User: anonymous   Login
Location: Ash Swamp
(41.5170°N, 74.6157°W)
Time: 00:05:35
(UTC+00:00)
Language:

Lacrosse 5 rocket - Orbit

View from above orbital plane
View from above orbital plane
View from above satellite
View from above satellite

Ground track
Ground track

The orbit data is extracted from the following two-line orbital elements,

1 28647U 05016B   20271.77350278  .00000394  00000-0  40989-4 0  9990
2 28647  56.9974 184.3456 0122452 330.1578  29.2514 15.06074783 75379
Epoch (UTC): 27 September 2020 18:33:50
Eccentricity: 0.0122452
inclination: 56.9974°
perigee height: 463 km
apogee height: 633 km
right ascension of ascending node: 184.3456°
argument of perigee: 330.1578°
revolutions per day: 15.06074783
mean anomaly at epoch: 29.2514°
orbit number at epoch: 7537

The dashed part of the orbit path shows where the satellite is in the earth's shadow,  

DLR